Location: Rotheul
(50.2849°N, 11.2349°E)
Time: 08:06:02
(UTC+02:00)

ISS - Pass Details

Date: 25 May 2018
Orbit: 402 x 407 km, 51.6° (Epoch: 24 May)

Event Time Altitude Azimuth Distance (km) Brightness Sun altitude
Rises 00:27:43 0° 278° (W) 2,320 0.3 -18.2°
Reaches altitude 10° 00:29:49 10° 281° (WNW) 1,460 -0.8 -18.2°
Maximum altitude 00:33:05 70° 6° (N) 433 -3.6 -18.3°
Enters shadow 00:35:43 15° 89° (E) 1,210 -1.5 -18.4°
